Weather in Novomykolaivka

Ukraine / Kharkiv Region     49°44′59″N   37°20′40″E
temp.,
°C
wind,
m/s
gust,
m/s
humid.,
%
clouds,
%
prec.,
mm/h
press.,
hPa
HPBL,
m
10 april, sat
sat1000:00+5n35586 0.0 102666
03:00+3nne35635 0.0 102678
06:00+2nne35675 0.0 102673
09:00+8nne45502 0.0 1026499
12:00+11nne45395 0.0 10251804
15:00+12n553730 0.0 10241871
18:00+11nne45415 0.0 10241707
21:00+7nne37545 0.0 1026121
11 april, sun
sun1100:00+6nne48600 0.0 1026143
03:00+4nne496480 0.0 1027158
06:00+4n4116486 0.0 1027236
09:00+8ne71149100 0.0 1028758
12:00+11nne8938100 0.0 10271024
15:00+12nne81038100 0.0 10261013
18:00+11nne71147100 0.0 1025930
21:00+10nne61351100 0.0 1025710
12 april, mon
mon1200:00+9ne51061100 0.0 1024512
03:00+8ne51090100 0.0 1023332
06:00+8ne51293100 0.0 1022317
09:00+11ene61080100 0.0 1022399
12:00+16ene675798 0.0 1020596
15:00+20ese6939100 0.0 10201313
18:00+17ese81348100 0.0 1020649
21:00+15ese5116098 0.0 1021441
13 april, tue
tue1300:00+13ese4972100 0.0 1021391
03:00+12ese378098 0.0 1021293
06:00+11ese4785100 0.0 1021301
09:00+14se467192 0.0 1021653
12:00+18se584898 0.0 10201642
15:00+18sse464698 0.0 10191770
18:00+15ese695678 0.0 1019580
21:00+13se4767100 0.0 1020263
14 april, wed
wed1400:00+11se347995 0.0 102078
03:00+11s348950 0.0 102071
06:00+10sse2291100 0.0 101938
09:00+13sse4577100 0.0 1019447
12:00+13sse4573100 0.0 1019555
15:00+16sse455797 0.1 10181395
18:00+16se4662100 0.3 1017647
21:00+13sse3772100 0.5 1017161